SCP
0 0 0 0 0 0 0 0 0 0 0 0 0 0 0 0 0 -0 -0 -0 -0 -0 -0 -0 -0 -0 -0 -0 -0 -0 -0 -0
0 0 0 0 0 0 0 0 0 0 0 -0 0 0 0 0 0 -0 -0 -0 -0 -0 -0 -0 -0 -0 -0 0 0 0 0 0
0 0 0 0 0 0 0 0 0 0 0 0 0 0 0 0 0 0 -0 -0 -0 -0 -0 0 -0 -0 -0 0 -0 0 0 0
0 0 0 0 0 0 0 0 0 0 0 0 0 0 0 0 0 0 0 0 0 0 -0 0 -0 0 -0 -0 -0 0 0 -0
0 0 0 0 0 0 0 0 0 0 -0 -0 0 -0 0 0 0 0 0 0 -0 0 0 -0 0 0 0 -0 -0 0 -0 -0
0 0 0 0 0 0 0 0 0 0 0 0 0 0 0 0 0 0 0 -0 -0 0 0 -0 0 0 0 0 0 0 0 -0
0 0 0 0 0 0 0 -0 0 -0 0 0 0 0 0 0 0 -0 -0 -0 0 0 0 0 0 0 0 0 0 0 -0 -0
0 0 0 0 0 0 0 0 0 0 -0 0 0 0 0 0 0 -1 -0 -0 -0 0 0 0 0 0 0 0 0 0 0 0
0 0 0 0 0 0 0 0 0 0 0 0 0 0 0 -0 0 -0 -0 0 0 0 0 0 0 0 0 0 0 0 0 0
0 0 0 0 0 -0 0 -0 0 0 0 0 0 0 0 0 0 -0 -0 0 0 0 0 0 0 0 0 0 0 0 0 0
0 0 0 0 -0 -0 0 0 -0 0 0 0 0 0 0 0 0 -0 0 0 0 0 0 0 0 -0 -0 -0 -0 -0 0 0
0 0 0 0 0 0 0 0 0 0 -0 -0 0 0 0 -0 -0 0 0 0 0 0 0 0 -0 -0 -0 -0 -0 -0 -0 0
0 0 0 0 0 0 0 0 -0 -0 0 -0 0 0 0 0 0 0 0 -0 0 0 0 -0 -0 -0 0 0 0 0 0 -0
0 0 0 0 0 0 0 -0 0 0 -0 -0 0 0 0 0 0 0 0 0 -0 -0 0 0 0 0 0 0 1 1 1 1
0 0 0 0 0 0 0 0 0 0 -0 -0 0 0 0 0 0 0 0 0 -0 -0 0 1 1 1 1 2 2 2 1 1
1 0 0 0 0 0 0 0 0 0 -0 0 0 0 0 0 0 0 0 0 0 1 1 1 1 1 2 2 1 1 1 1
1 0 0 0 0 0 0 0 0 0 0 0 0 -0 0 0 0 0 0 0 0 1 1 1 1 1 1 1 1 1 1 1
1 0 1 0 0 0 0 0 0 0 -0 0 0 0 0 0 0 0 0 0 1 1 1 0 1 1 1 1 1 1 1 1
0 0 0 0 0 0 0 0 0 0 0 -0 0 0 0 0 0 0 0 0 0 0 1 1 1 2 1 1 1 1 1 1
Wind_Speed_500mb
9 7 11 13 13 2 10 3 5 2 11 17 1 2 6 4 16 23 35 48 48 47 50 61 60 51 43 46 51 37 30 39
8 9 13 10 22 10 1 8 11 8 11 14 16 5 4 2 1 9 20 34 46 48 49 48 56 53 48 50 57 54 39 37
8 17 21 9 7 9 7 4 12 18 17 13 16 4 7 7 7 3 9 29 35 44 42 42 44 51 52 47 49 44 13 39
11 5 2 6 11 17 13 12 3 7 16 3 7 6 8 7 5 7 1 9 28 42 37 37 35 40 41 42 43 21 6 46
9 4 3 7 8 10 8 6 15 15 15 5 5 12 10 7 8 10 12 16 20 24 30 24 19 20 24 30 35 35 32 45
8 5 7 9 13 17 22 12 14 17 27 16 15 16 13 4 4 9 18 20 21 23 21 16 12 12 13 17 20 30 61 39
7 2 4 6 18 27 26 22 19 25 23 19 17 21 17 12 8 17 23 21 23 21 23 18 18 16 15 12 13 17 28 59
6 13 5 8 6 16 20 10 13 7 16 6 15 23 20 20 22 30 31 36 41 44 44 41 39 41 33 25 16 13 14 20
8 10 8 8 5 11 9 11 12 17 8 23 21 28 28 26 26 35 31 34 45 53 55 53 46 37 34 29 24 19 14 7
6 10 10 5 3 14 17 11 19 9 6 27 25 28 25 24 32 34 33 39 45 49 53 47 40 40 34 29 21 20 19 19
9 16 4 5 8 8 11 7 16 10 11 25 30 26 11 31 29 34 35 40 41 46 46 46 44 43 42 39 33 28 22 18
7 10 14 5 8 6 4 5 21 23 32 42 36 18 15 39 40 35 39 41 44 45 47 46 43 37 27 25 22 19 11 11
9 5 4 7 9 9 5 4 14 26 47 45 22 8 34 48 45 37 40 42 42 41 40 38 32 28 22 17 11 10 6 11
6 3 8 14 13 8 3 2 9 14 32 34 28 27 21 44 45 38 40 42 42 39 35 30 22 21 18 11 12 6 5 12
8 3 3 2 2 2 5 5 9 12 33 39 17 14 20 31 39 38 34 34 43 38 30 33 30 25 19 20 19 15 12 16
8 3 4 8 9 9 11 21 20 21 23 30 12 10 15 11 29 39 36 37 40 38 36 32 24 19 21 25 24 18 18 21
7 11 23 15 15 26 33 28 28 28 25 19 19 17 13 8 15 26 30 32 35 35 33 26 22 21 22 21 18 20 24 28
9 32 19 20 27 30 45 43 38 37 38 30 22 18 15 14 12 19 26 28 27 26 23 21 15 14 16 18 21 25 32 39
15 31 43 42 40 37 48 44 40 39 36 34 30 26 21 17 11 8 9 9 8 7 5 2 3 4 8 15 24 33 41 48
Wind_Direction_500mb
210 156 177 153 198 205 118 65 241 200 267 268 203 263 27 201 190 191 202 216 217 216 223 223 221 222 218 221 221 222 232 237
137 128 61 210 142 170 167 191 239 211 273 261 286 231 329 323 213 240 218 214 216 226 220 221 223 221 221 226 227 226 228 237
176 206 169 151 176 70 113 328 255 260 257 232 243 225 286 18 355 338 232 219 206 210 216 221 216 220 224 230 235 225 226 269
190 79 352 183 179 189 220 201 249 281 256 124 192 238 240 319 347 11 58 196 198 202 210 206 207 214 222 228 235 191 297 199
169 128 57 218 173 189 162 141 194 232 244 145 193 214 208 286 1 46 80 103 154 178 191 191 194 208 222 230 234 189 167 212
197 148 128 179 183 191 212 204 191 230 259 228 194 187 166 194 40 72 96 112 129 150 152 162 172 196 202 220 233 213 201 219
225 287 190 252 192 183 207 215 203 235 224 281 182 171 163 156 133 102 100 121 131 137 129 120 111 115 130 163 195 208 221 229
138 156 178 201 175 197 208 224 250 221 256 156 152 135 152 153 139 115 107 115 122 120 116 110 105 105 103 104 111 142 181 217
193 175 268 238 208 203 205 213 235 219 248 160 164 155 157 153 151 130 126 132 126 123 118 111 103 91 84 85 87 98 115 143
135 152 215 66 320 253 226 225 215 266 206 194 163 142 149 161 149 138 139 143 135 127 118 109 104 96 80 63 54 53 57 59
162 200 326 202 196 161 206 182 191 222 160 167 140 122 141 169 162 155 153 150 143 132 124 119 108 90 79 78 75 62 49 30
155 177 205 202 144 193 203 132 191 184 170 158 157 161 173 179 175 173 168 163 154 145 137 133 128 118 102 81 75 76 64 19
151 164 237 225 151 143 188 124 165 192 174 170 171 103 160 179 181 181 178 174 169 161 154 153 145 142 145 120 112 118 75 25
130 141 214 161 143 219 18 84 161 170 175 163 142 124 137 180 182 183 186 185 185 178 168 172 174 185 185 181 189 211 289 336
206 150 34 246 84 263 178 188 150 155 175 167 146 148 136 164 183 186 186 193 194 190 191 200 203 199 205 212 219 232 260 303
153 150 136 137 139 126 126 129 119 109 143 175 216 222 186 177 189 184 182 189 195 199 213 224 228 228 223 224 220 235 267 294
112 124 112 88 111 126 127 110 105 103 115 133 156 166 171 149 179 192 195 205 213 221 233 246 255 246 236 237 248 269 290 307
169 156 116 127 118 122 115 110 112 118 109 102 119 132 164 189 189 200 212 222 234 243 252 252 248 239 247 263 282 299 310 317
140 137 128 126 125 117 117 118 115 109 101 103 93 90 97 112 124 146 163 182 194 200 204 206 194 221 268 291 302 309 312 314
Wind_Speed_850mb
9 7 11 13 13 2 10 3 5 2 11 17 1 2 6 4 16 23 35 48 48 47 50 61 60 51 43 46 51 37 30 39
8 9 13 10 22 10 1 8 11 8 11 14 16 5 4 2 1 9 20 34 46 48 49 48 56 53 48 50 57 54 39 37
8 17 21 9 7 9 7 4 12 18 17 13 16 4 7 7 7 3 9 29 35 44 42 42 44 51 52 47 49 44 13 39
11 5 2 6 11 17 13 12 3 7 16 3 7 6 8 7 5 7 1 9 28 42 37 37 35 40 41 42 43 21 6 46
9 4 3 7 8 10 8 6 15 15 15 5 5 12 10 7 8 10 12 16 20 24 30 24 19 20 24 30 35 35 32 45
8 5 7 9 13 17 22 12 14 17 27 16 15 16 13 4 4 9 18 20 21 23 21 16 12 12 13 17 20 30 61 39
7 2 4 6 18 27 26 22 19 25 23 19 17 21 17 12 8 17 23 21 23 21 23 18 18 16 15 12 13 17 28 59
6 13 5 8 6 16 20 10 13 7 16 6 15 23 20 20 22 30 31 36 41 44 44 41 39 41 33 25 16 13 14 20
8 10 8 8 5 11 9 11 12 17 8 23 21 28 28 26 26 35 31 34 45 53 55 53 46 37 34 29 24 19 14 7
6 10 10 5 3 14 17 11 19 9 6 27 25 28 25 24 32 34 33 39 45 49 53 47 40 40 34 29 21 20 19 19
9 16 4 5 8 8 11 7 16 10 11 25 30 26 11 31 29 34 35 40 41 46 46 46 44 43 42 39 33 28 22 18
7 10 14 5 8 6 4 5 21 23 32 42 36 18 15 39 40 35 39 41 44 45 47 46 43 37 27 25 22 19 11 11
9 5 4 7 9 9 5 4 14 26 47 45 22 8 34 48 45 37 40 42 42 41 40 38 32 28 22 17 11 10 6 11
6 3 8 14 13 8 3 2 9 14 32 34 28 27 21 44 45 38 40 42 42 39 35 30 22 21 18 11 12 6 5 12
8 3 3 2 2 2 5 5 9 12 33 39 17 14 20 31 39 38 34 34 43 38 30 33 30 25 19 20 19 15 12 16
8 3 4 8 9 9 11 21 20 21 23 30 12 10 15 11 29 39 36 37 40 38 36 32 24 19 21 25 24 18 18 21
7 11 23 15 15 26 33 28 28 28 25 19 19 17 13 8 15 26 30 32 35 35 33 26 22 21 22 21 18 20 24 28
9 32 19 20 27 30 45 43 38 37 38 30 22 18 15 14 12 19 26 28 27 26 23 21 15 14 16 18 21 25 32 39
15 31 43 42 40 37 48 44 40 39 36 34 30 26 21 17 11 8 9 9 8 7 5 2 3 4 8 15 24 33 41 48
Wind_Direction_850mb
210 156 177 153 198 205 118 65 241 200 267 268 203 263 27 201 190 191 202 216 217 216 223 223 221 222 218 221 221 222 232 237
137 128 61 210 142 170 167 191 239 211 273 261 286 231 329 323 213 240 218 214 216 226 220 221 223 221 221 226 227 226 228 237
176 206 169 151 176 70 113 328 255 260 257 232 243 225 286 18 355 338 232 219 206 210 216 221 216 220 224 230 235 225 226 269
190 79 352 183 179 189 220 201 249 281 256 124 192 238 240 319 347 11 58 196 198 202 210 206 207 214 222 228 235 191 297 199
169 128 57 218 173 189 162 141 194 232 244 145 193 214 208 286 1 46 80 103 154 178 191 191 194 208 222 230 234 189 167 212
197 148 128 179 183 191 212 204 191 230 259 228 194 187 166 194 40 72 96 112 129 150 152 162 172 196 202 220 233 213 201 219
225 287 190 252 192 183 207 215 203 235 224 281 182 171 163 156 133 102 100 121 131 137 129 120 111 115 130 163 195 208 221 229
138 156 178 201 175 197 208 224 250 221 256 156 152 135 152 153 139 115 107 115 122 120 116 110 105 105 103 104 111 142 181 217
193 175 268 238 208 203 205 213 235 219 248 160 164 155 157 153 151 130 126 132 126 123 118 111 103 91 84 85 87 98 115 143
135 152 215 66 320 253 226 225 215 266 206 194 163 142 149 161 149 138 139 143 135 127 118 109 104 96 80 63 54 53 57 59
162 200 326 202 196 161 206 182 191 222 160 167 140 122 141 169 162 155 153 150 143 132 124 119 108 90 79 78 75 62 49 30
155 177 205 202 144 193 203 132 191 184 170 158 157 161 173 179 175 173 168 163 154 145 137 133 128 118 102 81 75 76 64 19
151 164 237 225 151 143 188 124 165 192 174 170 171 103 160 179 181 181 178 174 169 161 154 153 145 142 145 120 112 118 75 25
130 141 214 161 143 219 18 84 161 170 175 163 142 124 137 180 182 183 186 185 185 178 168 172 174 185 185 181 189 211 289 336
206 150 34 246 84 263 178 188 150 155 175 167 146 148 136 164 183 186 186 193 194 190 191 200 203 199 205 212 219 232 260 303
153 150 136 137 139 126 126 129 119 109 143 175 216 222 186 177 189 184 182 189 195 199 213 224 228 228 223 224 220 235 267 294
112 124 112 88 111 126 127 110 105 103 115 133 156 166 171 149 179 192 195 205 213 221 233 246 255 246 236 237 248 269 290 307
169 156 116 127 118 122 115 110 112 118 109 102 119 132 164 189 189 200 212 222 234 243 252 252 248 239 247 263 282 299 310 317
140 137 128 126 125 117 117 118 115 109 101 103 93 90 97 112 124 146 163 182 194 200 204 206 194 221 268 291 302 309 312 314